Year,Month,Day,Hour,Minute,Value (Times are PST for temperature in C)
2016,06,05,00,00,18.20
2016,06,05,00,01,18.20
2016,06,05,00,02,18.20
2016,06,05,00,03,18.20
2016,06,05,00,04,18.20
2016,06,05,00,05,18.10
2016,06,05,00,06,18.10
2016,06,05,00,07,18.10
2016,06,05,00,08,18.10
2016,06,05,00,09,18.00
2016,06,05,00,10,17.90
2016,06,05,00,11,17.90
2016,06,05,00,12,17.90
2016,06,05,00,13,17.90
2016,06,05,00,14,17.90
2016,06,05,00,15,17.90
2016,06,05,00,16,17.90
2016,06,05,00,17,17.90
2016,06,05,00,18,17.90
2016,06,05,00,19,17.90
2016,06,05,00,20,17.90
2016,06,05,00,21,17.90
2016,06,05,00,22,17.90
2016,06,05,00,23,17.90
2016,06,05,00,24,17.90
2016,06,05,00,25,17.90
2016,06,05,00,26,17.90
2016,06,05,00,27,17.90
2016,06,05,00,28,17.90
2016,06,05,00,29,17.90
2016,06,05,00,30,17.90
2016,06,05,00,31,17.80
2016,06,05,00,32,17.80
2016,06,05,00,33,17.80
2016,06,05,00,34,17.80
2016,06,05,00,35,17.80
2016,06,05,00,36,17.80
2016,06,05,00,37,17.80
2016,06,05,00,38,17.80
2016,06,05,00,39,17.80
2016,06,05,00,40,17.80
2016,06,05,00,41,17.80
2016,06,05,00,42,17.80
2016,06,05,00,43,17.80
2016,06,05,00,44,17.90
2016,06,05,00,45,17.90
2016,06,05,00,46,17.90
2016,06,05,00,47,17.90
2016,06,05,00,48,18.00
2016,06,05,00,49,18.10
2016,06,05,00,50,18.10
2016,06,05,00,51,18.10
2016,06,05,00,52,18.20
2016,06,05,00,53,18.20
2016,06,05,00,54,18.20
2016,06,05,00,55,18.20
2016,06,05,00,56,18.20
2016,06,05,00,57,18.20
2016,06,05,00,58,18.20
2016,06,05,00,59,18.20
2016,06,05,01,00,18.20
2016,06,05,01,01,18.20
2016,06,05,01,02,18.20
2016,06,05,01,03,18.20
2016,06,05,01,04,18.10
2016,06,05,01,05,18.10
2016,06,05,01,06,18.00
2016,06,05,01,07,17.90
2016,06,05,01,08,17.90
2016,06,05,01,09,17.90
2016,06,05,01,10,17.90
2016,06,05,01,11,17.90
2016,06,05,01,12,17.90
2016,06,05,01,13,17.80
2016,06,05,01,14,17.80
2016,06,05,01,15,17.80
2016,06,05,01,16,17.70
2016,06,05,01,17,17.70
2016,06,05,01,18,17.70
2016,06,05,01,19,17.60
2016,06,05,01,20,17.60
2016,06,05,01,21,17.60
2016,06,05,01,22,17.50
2016,06,05,01,23,17.50
2016,06,05,01,24,17.40
2016,06,05,01,25,17.40
2016,06,05,01,26,17.40
2016,06,05,01,27,17.40
2016,06,05,01,28,17.30
2016,06,05,01,29,17.30
2016,06,05,01,30,17.30
2016,06,05,01,31,17.30
2016,06,05,01,32,17.30
2016,06,05,01,33,17.30
2016,06,05,01,34,17.30
2016,06,05,01,35,17.30
2016,06,05,01,36,17.30
2016,06,05,01,37,17.30
2016,06,05,01,38,17.30
2016,06,05,01,39,17.30
2016,06,05,01,40,17.30
2016,06,05,01,41,17.30
2016,06,05,01,42,17.30
2016,06,05,01,43,17.30
2016,06,05,01,44,17.30
2016,06,05,01,45,17.30
2016,06,05,01,46,17.40
2016,06,05,01,47,17.40
2016,06,05,01,48,17.40
2016,06,05,01,49,17.40
2016,06,05,01,50,17.40
2016,06,05,01,51,17.50
2016,06,05,01,52,17.50
2016,06,05,01,53,17.50
2016,06,05,01,54,17.60
2016,06,05,01,55,17.60
2016,06,05,01,56,17.60
2016,06,05,01,57,17.70
2016,06,05,01,58,17.70
2016,06,05,01,59,17.70
2016,06,05,02,00,17.80
2016,06,05,02,01,17.80
2016,06,05,02,02,17.90
2016,06,05,02,03,17.90
2016,06,05,02,04,17.90
2016,06,05,02,05,17.90
2016,06,05,02,06,17.90
2016,06,05,02,07,17.90
2016,06,05,02,08,17.90
2016,06,05,02,09,18.00
2016,06,05,02,10,18.10
2016,06,05,02,11,18.10
2016,06,05,02,12,18.00
2016,06,05,02,13,17.90
2016,06,05,02,14,17.90
2016,06,05,02,15,17.90
2016,06,05,02,16,17.90
2016,06,05,02,17,17.90
2016,06,05,02,18,17.90
2016,06,05,02,19,17.80
2016,06,05,02,20,17.80
2016,06,05,02,21,17.70
2016,06,05,02,22,17.70
2016,06,05,02,23,17.70
2016,06,05,02,24,17.60
2016,06,05,02,25,17.60
2016,06,05,02,26,17.50
2016,06,05,02,27,17.50
2016,06,05,02,28,17.50
2016,06,05,02,29,17.40
2016,06,05,02,30,17.40
2016,06,05,02,31,17.40
2016,06,05,02,32,17.40
2016,06,05,02,33,17.40
2016,06,05,02,34,17.40
2016,06,05,02,35,17.40
2016,06,05,02,36,17.40
2016,06,05,02,37,17.40
2016,06,05,02,38,17.40
2016,06,05,02,39,17.40
2016,06,05,02,40,17.40
2016,06,05,02,41,17.40
2016,06,05,02,42,17.40
2016,06,05,02,43,17.30
2016,06,05,02,44,17.30
2016,06,05,02,45,17.30
2016,06,05,02,46,17.30
2016,06,05,02,47,17.30
2016,06,05,02,48,17.30
2016,06,05,02,49,17.30
2016,06,05,02,50,17.30
2016,06,05,02,51,17.30
2016,06,05,02,52,17.30
2016,06,05,02,53,17.30
2016,06,05,02,54,17.40
2016,06,05,02,55,17.40
2016,06,05,02,56,17.40
2016,06,05,02,57,17.40
2016,06,05,02,58,17.30
2016,06,05,02,59,17.30
2016,06,05,03,00,17.30
2016,06,05,03,01,17.30
2016,06,05,03,02,17.30
2016,06,05,03,03,17.30
2016,06,05,03,04,17.30
2016,06,05,03,05,17.30
2016,06,05,03,06,17.30
2016,06,05,03,07,17.30
2016,06,05,03,08,17.30
2016,06,05,03,09,17.20
2016,06,05,03,10,17.20
2016,06,05,03,11,17.20
2016,06,05,03,12,17.20
2016,06,05,03,13,17.20
2016,06,05,03,14,17.20
2016,06,05,03,15,17.20
2016,06,05,03,16,17.10
2016,06,05,03,17,17.10
2016,06,05,03,18,17.10
2016,06,05,03,19,17.00
2016,06,05,03,20,17.00
2016,06,05,03,21,17.00
2016,06,05,03,22,16.90
2016,06,05,03,23,16.90
2016,06,05,03,24,16.90
2016,06,05,03,25,16.80
2016,06,05,03,26,16.80
2016,06,05,03,27,16.80
2016,06,05,03,28,16.80
2016,06,05,03,29,16.70
2016,06,05,03,30,16.70
2016,06,05,03,31,16.70
2016,06,05,03,32,16.70
2016,06,05,03,33,16.70
2016,06,05,03,34,16.70
2016,06,05,03,35,16.60
2016,06,05,03,36,16.60
2016,06,05,03,37,16.60
2016,06,05,03,38,16.60
2016,06,05,03,39,16.60
2016,06,05,03,40,16.60
2016,06,05,03,41,16.60
2016,06,05,03,42,16.60
2016,06,05,03,43,16.60
2016,06,05,03,44,16.60
2016,06,05,03,45,16.60
2016,06,05,03,46,16.50
2016,06,05,03,47,16.40
2016,06,05,03,48,16.40
2016,06,05,03,49,16.40
2016,06,05,03,50,16.40
2016,06,05,03,51,16.40
2016,06,05,03,52,16.40
2016,06,05,03,53,16.40
2016,06,05,03,54,16.40
2016,06,05,03,55,16.40
2016,06,05,03,56,16.40
2016,06,05,03,57,16.40
2016,06,05,03,58,16.40
2016,06,05,03,59,16.40
2016,06,05,04,00,16.30
2016,06,05,04,01,16.30
2016,06,05,04,02,16.30
2016,06,05,04,03,16.30
2016,06,05,04,04,16.30
2016,06,05,04,05,16.30
2016,06,05,04,06,16.30
2016,06,05,04,07,16.30
2016,06,05,04,08,16.30
2016,06,05,04,09,16.30
2016,06,05,04,10,16.30
2016,06,05,04,11,16.30
2016,06,05,04,12,16.30
2016,06,05,04,13,16.30
2016,06,05,04,14,16.30
2016,06,05,04,15,16.30
2016,06,05,04,16,16.30
2016,06,05,04,17,16.40
2016,06,05,04,18,16.40
2016,06,05,04,19,16.40
2016,06,05,04,20,16.40
2016,06,05,04,21,16.40
2016,06,05,04,22,16.40
2016,06,05,04,23,16.40
2016,06,05,04,24,16.40
2016,06,05,04,25,16.40
2016,06,05,04,26,16.30
2016,06,05,04,27,16.30
2016,06,05,04,28,16.30
2016,06,05,04,29,16.30
2016,06,05,04,30,16.30
2016,06,05,04,31,16.40
2016,06,05,04,32,16.40
2016,06,05,04,33,16.40
2016,06,05,04,34,16.40
2016,06,05,04,35,16.40
2016,06,05,04,36,16.40
2016,06,05,04,37,16.40
2016,06,05,04,38,16.40
2016,06,05,04,39,16.40
2016,06,05,04,40,16.40
2016,06,05,04,41,16.40
2016,06,05,04,42,16.40
2016,06,05,04,43,16.40
2016,06,05,04,44,16.30
2016,06,05,04,45,16.30
2016,06,05,04,46,16.30
2016,06,05,04,47,16.30
2016,06,05,04,48,16.30
2016,06,05,04,49,16.30
2016,06,05,04,50,16.30
2016,06,05,04,51,16.20
2016,06,05,04,52,16.20
2016,06,05,04,53,16.20
2016,06,05,04,54,16.20
2016,06,05,04,55,16.20
2016,06,05,04,56,16.10
2016,06,05,04,57,16.10
2016,06,05,04,58,16.10
2016,06,05,04,59,16.10
2016,06,05,05,00,16.10
2016,06,05,05,01,16.10
2016,06,05,05,02,16.10
2016,06,05,05,03,16.10
2016,06,05,05,04,16.10
2016,06,05,05,05,16.00
2016,06,05,05,06,15.90
2016,06,05,05,07,15.90
2016,06,05,05,08,15.90
2016,06,05,05,09,15.90
2016,06,05,05,10,15.90
2016,06,05,05,11,15.90
2016,06,05,05,12,15.90
2016,06,05,05,13,15.90
2016,06,05,05,14,15.90
2016,06,05,05,15,15.90
2016,06,05,05,16,15.90
2016,06,05,05,17,15.90
2016,06,05,05,18,16.00
2016,06,05,05,19,16.10
2016,06,05,05,20,16.10
2016,06,05,05,21,16.10
2016,06,05,05,22,16.10
2016,06,05,05,23,16.10
2016,06,05,05,24,16.10
2016,06,05,05,25,16.10
2016,06,05,05,26,16.10
2016,06,05,05,27,16.10
2016,06,05,05,28,16.10
2016,06,05,05,29,16.10
2016,06,05,05,30,16.10
2016,06,05,05,31,16.10
2016,06,05,05,32,16.10
2016,06,05,05,33,16.10
2016,06,05,05,34,16.10
2016,06,05,05,35,16.10
2016,06,05,05,36,16.10
2016,06,05,05,37,16.10
2016,06,05,05,38,16.10
2016,06,05,05,39,16.10
2016,06,05,05,40,16.10
2016,06,05,05,41,16.10
2016,06,05,05,42,16.10
2016,06,05,05,43,16.00
2016,06,05,05,44,15.90
2016,06,05,05,45,15.90
2016,06,05,05,46,15.90
2016,06,05,05,47,15.90
2016,06,05,05,48,15.90
2016,06,05,05,49,15.90
2016,06,05,05,50,15.90
2016,06,05,05,51,15.90
2016,06,05,05,52,15.90
2016,06,05,05,53,15.90
2016,06,05,05,54,15.90
2016,06,05,05,55,15.90
2016,06,05,05,56,15.90
2016,06,05,05,57,15.90
2016,06,05,05,58,15.90
2016,06,05,05,59,16.10
2016,06,05,06,00,16.10
2016,06,05,06,01,16.10
2016,06,05,06,02,16.10
2016,06,05,06,03,16.10
2016,06,05,06,04,16.10
2016,06,05,06,05,16.20
2016,06,05,06,06,16.20
2016,06,05,06,07,16.30
2016,06,05,06,08,16.30
2016,06,05,06,09,16.30
2016,06,05,06,10,16.40
2016,06,05,06,11,16.40
2016,06,05,06,12,16.40
2016,06,05,06,13,16.50
2016,06,05,06,14,16.60
2016,06,05,06,15,16.60
2016,06,05,06,16,16.60
2016,06,05,06,17,16.70
2016,06,05,06,18,16.70
2016,06,05,06,19,16.70
2016,06,05,06,20,16.80
2016,06,05,06,21,16.90
2016,06,05,06,22,16.90
2016,06,05,06,23,17.00
2016,06,05,06,24,17.10
2016,06,05,06,25,17.20
2016,06,05,06,26,17.30
2016,06,05,06,27,17.30
2016,06,05,06,28,17.40
2016,06,05,06,29,17.50
2016,06,05,06,30,17.60
2016,06,05,06,31,17.70
2016,06,05,06,32,17.80
2016,06,05,06,33,17.80
2016,06,05,06,34,17.90
2016,06,05,06,35,17.80
2016,06,05,06,36,17.60
2016,06,05,06,37,17.40
2016,06,05,06,38,17.10
2016,06,05,06,39,16.80
2016,06,05,06,40,16.60
2016,06,05,06,41,16.50
2016,06,05,06,42,16.40
2016,06,05,06,43,16.30
2016,06,05,06,44,16.20
2016,06,05,06,45,16.10
2016,06,05,06,46,16.10
2016,06,05,06,47,16.00
2016,06,05,06,48,15.90
2016,06,05,06,49,15.90
2016,06,05,06,50,15.90
2016,06,05,06,51,15.90
2016,06,05,06,52,16.00
2016,06,05,06,53,16.10
2016,06,05,06,54,16.10
2016,06,05,06,55,16.10
2016,06,05,06,56,16.10
2016,06,05,06,57,16.10
2016,06,05,06,58,16.10
2016,06,05,06,59,16.00
2016,06,05,07,00,15.90
2016,06,05,07,01,15.90
2016,06,05,07,02,15.90
2016,06,05,07,03,15.90
2016,06,05,07,04,15.90
2016,06,05,07,05,15.90
2016,06,05,07,06,15.90
2016,06,05,07,07,15.90
2016,06,05,07,08,15.80
2016,06,05,07,09,15.80
2016,06,05,07,10,15.80
2016,06,05,07,11,15.80
2016,06,05,07,12,15.80
2016,06,05,07,13,15.80
2016,06,05,07,14,15.80
2016,06,05,07,15,15.90
2016,06,05,07,16,15.90
2016,06,05,07,17,16.00
2016,06,05,07,18,16.10
2016,06,05,07,19,16.10
2016,06,05,07,20,16.10
2016,06,05,07,21,16.20
2016,06,05,07,22,16.20
2016,06,05,07,23,16.30
2016,06,05,07,24,16.30
2016,06,05,07,25,16.40
2016,06,05,07,26,16.40
2016,06,05,07,27,16.40
2016,06,05,07,28,16.60
2016,06,05,07,29,16.60
2016,06,05,07,30,16.70
2016,06,05,07,31,16.70
2016,06,05,07,32,16.70
2016,06,05,07,33,16.80
2016,06,05,07,34,16.80
2016,06,05,07,35,16.90
2016,06,05,07,36,16.90
2016,06,05,07,37,16.90
2016,06,05,07,38,16.90
2016,06,05,07,39,17.00
2016,06,05,07,40,17.00
2016,06,05,07,41,17.10
2016,06,05,07,42,17.10
2016,06,05,07,43,17.20
2016,06,05,07,44,17.30
2016,06,05,07,45,17.30
2016,06,05,07,46,17.40
2016,06,05,07,47,17.50
2016,06,05,07,48,17.50
2016,06,05,07,49,17.60
2016,06,05,07,50,17.70
2016,06,05,07,51,17.70
2016,06,05,07,52,17.70
2016,06,05,07,53,17.70
2016,06,05,07,54,17.70
2016,06,05,07,55,17.70
2016,06,05,07,56,17.70
2016,06,05,07,57,17.70
2016,06,05,07,58,17.70
2016,06,05,07,59,17.70
2016,06,05,08,00,17.60
2016,06,05,08,01,17.50
2016,06,05,08,02,17.40
2016,06,05,08,03,17.40
2016,06,05,08,04,17.20
2016,06,05,08,05,17.10
2016,06,05,08,06,17.10
2016,06,05,08,07,17.10
2016,06,05,08,08,17.10
2016,06,05,08,09,17.20
2016,06,05,08,10,17.30
2016,06,05,08,11,17.30
2016,06,05,08,12,17.40
2016,06,05,08,13,17.50
2016,06,05,08,14,17.70
2016,06,05,08,15,17.80
2016,06,05,08,16,17.90
2016,06,05,08,17,18.00
2016,06,05,08,18,18.10
2016,06,05,08,19,18.20
2016,06,05,08,20,18.30
2016,06,05,08,21,18.40
2016,06,05,08,22,18.50
2016,06,05,08,23,18.60
2016,06,05,08,24,18.70
2016,06,05,08,25,18.80
2016,06,05,08,26,18.90
2016,06,05,08,27,19.10
2016,06,05,08,28,19.20
2016,06,05,08,29,19.30
2016,06,05,08,30,19.40
2016,06,05,08,31,19.60
2016,06,05,08,32,19.70
2016,06,05,08,33,19.80
2016,06,05,08,34,19.90
2016,06,05,08,35,19.90
2016,06,05,08,36,20.00
2016,06,05,08,37,20.10
2016,06,05,08,38,20.10
2016,06,05,08,39,20.20
2016,06,05,08,40,20.20
2016,06,05,08,41,20.20
2016,06,05,08,42,20.30
2016,06,05,08,43,20.30
2016,06,05,08,44,20.40
2016,06,05,08,45,20.40
2016,06,05,08,46,20.40
2016,06,05,08,47,20.40
2016,06,05,08,48,20.40
2016,06,05,08,49,20.40
2016,06,05,08,50,20.50
2016,06,05,08,51,20.50
2016,06,05,08,52,20.40
2016,06,05,08,53,20.40
2016,06,05,08,54,20.40
2016,06,05,08,55,20.50
2016,06,05,08,56,20.50
2016,06,05,08,57,20.50
2016,06,05,08,58,20.50
2016,06,05,08,59,20.60
2016,06,05,09,00,20.70
2016,06,05,09,01,20.70
2016,06,05,09,02,20.80
2016,06,05,09,03,20.90
2016,06,05,09,04,21.00
2016,06,05,09,05,21.10
2016,06,05,09,06,21.20
2016,06,05,09,07,21.30
2016,06,05,09,08,21.40
2016,06,05,09,09,21.50
2016,06,05,09,10,21.70
2016,06,05,09,11,21.80
2016,06,05,09,12,22.00
2016,06,05,09,13,22.10
2016,06,05,09,14,22.30
2016,06,05,09,15,22.40
2016,06,05,09,16,22.60
2016,06,05,09,17,22.70
2016,06,05,09,18,22.80
2016,06,05,09,19,22.90
2016,06,05,09,20,22.90
2016,06,05,09,21,22.90
2016,06,05,09,22,23.00
2016,06,05,09,23,23.10
2016,06,05,09,24,23.20
2016,06,05,09,25,23.20
2016,06,05,09,26,23.30
2016,06,05,09,27,23.30
2016,06,05,09,28,23.30
2016,06,05,09,29,23.30
2016,06,05,09,30,23.30
2016,06,05,09,31,23.40
2016,06,05,09,32,23.40
2016,06,05,09,33,23.50
2016,06,05,09,34,23.70
2016,06,05,09,35,23.70
2016,06,05,09,36,23.80
2016,06,05,09,37,23.80
2016,06,05,09,38,23.90
2016,06,05,09,39,23.90
2016,06,05,09,40,24.10
2016,06,05,09,41,24.10
2016,06,05,09,42,24.00
2016,06,05,09,43,23.90
2016,06,05,09,44,23.80
2016,06,05,09,45,23.80
2016,06,05,09,46,23.80
2016,06,05,09,47,23.70
2016,06,05,09,48,23.70
2016,06,05,09,49,23.70
2016,06,05,09,50,23.70
2016,06,05,09,51,23.70
2016,06,05,09,52,23.80
2016,06,05,09,53,23.80
2016,06,05,09,54,23.80
2016,06,05,09,55,23.80
2016,06,05,09,56,23.80
2016,06,05,09,57,23.90
2016,06,05,09,58,23.90
2016,06,05,09,59,23.90
2016,06,05,10,00,23.90
2016,06,05,10,01,24.10
2016,06,05,10,02,24.10
2016,06,05,10,03,24.10
2016,06,05,10,04,24.20
2016,06,05,10,05,24.30
2016,06,05,10,06,24.30
2016,06,05,10,07,24.30
2016,06,05,10,08,24.40
2016,06,05,10,09,24.40
2016,06,05,10,10,24.50
2016,06,05,10,11,24.50
2016,06,05,10,12,24.60
2016,06,05,10,13,24.60
2016,06,05,10,14,24.70
2016,06,05,10,15,24.80
2016,06,05,10,16,24.80
2016,06,05,10,17,24.90
2016,06,05,10,18,24.90
2016,06,05,10,19,24.90
2016,06,05,10,20,24.90
2016,06,05,10,21,24.90
2016,06,05,10,22,24.90
2016,06,05,10,23,24.90
2016,06,05,10,24,24.90
2016,06,05,10,25,24.90
2016,06,05,10,26,24.90
2016,06,05,10,27,24.90
2016,06,05,10,28,24.90
2016,06,05,10,29,24.90
2016,06,05,10,30,24.90
2016,06,05,10,31,24.90
2016,06,05,10,32,24.90
2016,06,05,10,33,25.00
2016,06,05,10,34,24.90
2016,06,05,10,35,25.00
2016,06,05,10,36,25.00
2016,06,05,10,37,25.10
2016,06,05,10,38,25.10
2016,06,05,10,39,25.20
2016,06,05,10,40,25.30
2016,06,05,10,41,25.40
2016,06,05,10,42,25.40
2016,06,05,10,43,25.40
2016,06,05,10,44,25.50
2016,06,05,10,45,25.60
2016,06,05,10,46,25.60
2016,06,05,10,47,25.70
2016,06,05,10,48,25.70
2016,06,05,10,49,25.80
2016,06,05,10,50,25.90
2016,06,05,10,51,25.90
2016,06,05,10,52,25.90
2016,06,05,10,53,26.00
2016,06,05,10,54,26.00
2016,06,05,10,55,26.10
2016,06,05,10,56,26.10
2016,06,05,10,57,26.10
2016,06,05,10,58,26.10
2016,06,05,10,59,26.10
2016,06,05,11,00,26.10
2016,06,05,11,01,26.10
2016,06,05,11,02,26.10
2016,06,05,11,03,26.10
2016,06,05,11,04,26.10
2016,06,05,11,05,26.00
2016,06,05,11,06,26.00
2016,06,05,11,07,26.00
2016,06,05,11,08,26.00
2016,06,05,11,09,26.00
2016,06,05,11,10,26.00
2016,06,05,11,11,26.00
2016,06,05,11,12,26.00
2016,06,05,11,13,26.00
2016,06,05,11,14,26.00
2016,06,05,11,15,26.00
2016,06,05,11,16,26.00
2016,06,05,11,17,26.00
2016,06,05,11,18,26.10
2016,06,05,11,19,26.10
2016,06,05,11,20,26.10
2016,06,05,11,21,26.20
2016,06,05,11,22,26.20
2016,06,05,11,23,26.30
2016,06,05,11,24,26.30
2016,06,05,11,25,26.30
2016,06,05,11,26,26.30
2016,06,05,11,27,26.20
2016,06,05,11,28,26.20
2016,06,05,11,29,26.30
2016,06,05,11,30,26.30
2016,06,05,11,31,26.30
2016,06,05,11,32,26.30
2016,06,05,11,33,26.30
2016,06,05,11,34,26.40
2016,06,05,11,35,26.40
2016,06,05,11,36,26.40
2016,06,05,11,37,26.40
2016,06,05,11,38,26.40
2016,06,05,11,39,26.50
2016,06,05,11,40,26.60
2016,06,05,11,41,26.60
2016,06,05,11,42,26.60
2016,06,05,11,43,26.60
2016,06,05,11,44,26.60
2016,06,05,11,45,26.60
2016,06,05,11,46,26.60
2016,06,05,11,47,26.60
2016,06,05,11,48,26.70
2016,06,05,11,49,26.70
2016,06,05,11,50,26.70
2016,06,05,11,51,26.70
2016,06,05,11,52,26.70
2016,06,05,11,53,26.80
2016,06,05,11,54,26.90
2016,06,05,11,55,27.10
2016,06,05,11,56,27.10
2016,06,05,11,57,27.20
2016,06,05,11,58,27.20
2016,06,05,11,59,27.30
2016,06,05,12,00,27.30
2016,06,05,12,01,27.30
2016,06,05,12,02,27.30
2016,06,05,12,03,27.30
2016,06,05,12,04,27.30
2016,06,05,12,05,27.30
2016,06,05,12,06,27.30
2016,06,05,12,07,27.40
2016,06,05,12,08,27.40
2016,06,05,12,09,27.30
2016,06,05,12,10,27.30
2016,06,05,12,11,27.30
2016,06,05,12,12,27.30
2016,06,05,12,13,27.30
2016,06,05,12,14,27.40
2016,06,05,12,15,27.40
2016,06,05,12,16,27.50
2016,06,05,12,17,27.60
2016,06,05,12,18,27.60
2016,06,05,12,19,27.60
2016,06,05,12,20,27.60
2016,06,05,12,21,27.60
2016,06,05,12,22,27.70
2016,06,05,12,23,27.70
2016,06,05,12,24,27.70
2016,06,05,12,25,27.70
2016,06,05,12,26,27.70
2016,06,05,12,27,27.80
2016,06,05,12,28,27.80
2016,06,05,12,29,27.80
2016,06,05,12,30,27.80
2016,06,05,12,31,27.70
2016,06,05,12,32,27.70
2016,06,05,12,33,27.60
2016,06,05,12,34,27.60
2016,06,05,12,35,27.60
2016,06,05,12,36,27.60
2016,06,05,12,37,27.60
2016,06,05,12,38,27.60
2016,06,05,12,39,27.70
2016,06,05,12,40,27.70
2016,06,05,12,41,27.70
2016,06,05,12,42,27.80
2016,06,05,12,43,27.80
2016,06,05,12,44,27.90
2016,06,05,12,45,28.00
2016,06,05,12,46,28.00
2016,06,05,12,47,28.10
2016,06,05,12,48,28.20
2016,06,05,12,49,28.30
2016,06,05,12,50,28.30
2016,06,05,12,51,28.40
2016,06,05,12,52,28.40
2016,06,05,12,53,28.40
2016,06,05,12,54,28.60
2016,06,05,12,55,28.60
2016,06,05,12,56,28.60
2016,06,05,12,57,28.70
2016,06,05,12,58,28.80
2016,06,05,12,59,28.80
2016,06,05,13,00,28.90
2016,06,05,13,01,28.90
2016,06,05,13,02,28.90
2016,06,05,13,03,28.90
2016,06,05,13,04,28.90
2016,06,05,13,05,28.80
2016,06,05,13,06,28.80
2016,06,05,13,07,28.70
2016,06,05,13,08,28.60
2016,06,05,13,09,28.60
2016,06,05,13,10,28.50
2016,06,05,13,11,28.40
2016,06,05,13,12,28.40
2016,06,05,13,13,28.40
2016,06,05,13,14,28.40
2016,06,05,13,15,28.40
2016,06,05,13,16,28.40
2016,06,05,13,17,28.40
2016,06,05,13,18,28.40
2016,06,05,13,19,28.40
2016,06,05,13,20,28.40
2016,06,05,13,21,28.40
2016,06,05,13,22,28.40
2016,06,05,13,23,28.40
2016,06,05,13,24,28.30
2016,06,05,13,25,28.00
2016,06,05,13,26,27.20
2016,06,05,13,27,26.20
2016,06,05,13,28,25.30
2016,06,05,13,29,24.70
2016,06,05,13,30,24.10
2016,06,05,13,31,23.60
2016,06,05,13,32,23.10
2016,06,05,13,33,22.90
2016,06,05,13,34,22.60
2016,06,05,13,35,22.50
2016,06,05,13,36,22.30
2016,06,05,13,37,22.20
2016,06,05,13,38,22.00
2016,06,05,13,39,21.80
2016,06,05,13,40,21.60
2016,06,05,13,41,21.60
2016,06,05,13,42,21.80
2016,06,05,13,43,21.90
2016,06,05,13,44,22.00
2016,06,05,13,45,22.10
2016,06,05,13,46,22.00
2016,06,05,13,47,22.00
2016,06,05,13,48,22.10
2016,06,05,13,49,22.20
2016,06,05,13,50,22.30
2016,06,05,13,51,22.30
2016,06,05,13,52,22.40
2016,06,05,13,53,22.50
2016,06,05,13,54,22.60
2016,06,05,13,55,22.70
2016,06,05,13,56,22.70
2016,06,05,13,57,22.70
2016,06,05,13,58,22.50
2016,06,05,13,59,22.40
2016,06,05,14,00,22.40
2016,06,05,14,01,22.40
2016,06,05,14,02,22.40
2016,06,05,14,03,22.50
2016,06,05,14,04,22.60
2016,06,05,14,05,22.30
2016,06,05,14,06,22.20
2016,06,05,14,07,22.10
2016,06,05,14,08,21.80
2016,06,05,14,09,21.60
2016,06,05,14,10,21.50
2016,06,05,14,11,21.30
2016,06,05,14,12,21.30
2016,06,05,14,13,21.30
2016,06,05,14,14,21.30
2016,06,05,14,15,21.30
2016,06,05,14,16,21.30
2016,06,05,14,17,21.50
2016,06,05,14,18,21.60
2016,06,05,14,19,21.70
2016,06,05,14,20,21.80
2016,06,05,14,21,21.70
2016,06,05,14,22,21.70
2016,06,05,14,23,21.80
2016,06,05,14,24,21.90
2016,06,05,14,25,22.00
2016,06,05,14,26,22.00
2016,06,05,14,27,22.20
2016,06,05,14,28,22.30
2016,06,05,14,29,22.30
2016,06,05,14,30,22.30
2016,06,05,14,31,22.30
2016,06,05,14,32,22.30
2016,06,05,14,33,22.30
2016,06,05,14,34,22.30
2016,06,05,14,35,22.40
2016,06,05,14,36,22.70
2016,06,05,14,37,22.80
2016,06,05,14,38,22.90
2016,06,05,14,39,23.10
2016,06,05,14,40,23.20
2016,06,05,14,41,23.30
2016,06,05,14,42,23.40
2016,06,05,14,43,23.60
2016,06,05,14,44,23.70
2016,06,05,14,45,23.60
2016,06,05,14,46,23.50
2016,06,05,14,47,23.40
2016,06,05,14,48,23.40
2016,06,05,14,49,23.50
2016,06,05,14,50,23.60
2016,06,05,14,51,23.70
2016,06,05,14,52,23.90
2016,06,05,14,53,24.10
2016,06,05,14,54,24.20
2016,06,05,14,55,24.20
2016,06,05,14,56,24.20
2016,06,05,14,57,24.30
2016,06,05,14,58,24.30
2016,06,05,14,59,24.30
2016,06,05,15,00,24.40
2016,06,05,15,01,24.40
2016,06,05,15,02,24.50
2016,06,05,15,03,24.60
2016,06,05,15,04,24.60
2016,06,05,15,05,24.60
2016,06,05,15,06,24.60
2016,06,05,15,07,24.60
2016,06,05,15,08,24.60
2016,06,05,15,09,24.60
2016,06,05,15,10,24.60
2016,06,05,15,11,24.70
2016,06,05,15,12,24.70
2016,06,05,15,13,24.70
2016,06,05,15,14,24.70
2016,06,05,15,15,24.70
2016,06,05,15,16,24.70
2016,06,05,15,17,24.70
2016,06,05,15,18,24.80
2016,06,05,15,19,25.00
2016,06,05,15,20,25.10
2016,06,05,15,21,25.10
2016,06,05,15,22,25.10
2016,06,05,15,23,25.00
2016,06,05,15,24,25.10
2016,06,05,15,25,25.20
2016,06,05,15,26,25.40
2016,06,05,15,27,25.40
2016,06,05,15,28,25.40
2016,06,05,15,29,25.40
2016,06,05,15,30,25.40
2016,06,05,15,31,25.30
2016,06,05,15,32,25.20
2016,06,05,15,33,25.10
2016,06,05,15,34,25.30
2016,06,05,15,35,25.40
2016,06,05,15,36,25.50
2016,06,05,15,37,25.80
2016,06,05,15,38,25.90
2016,06,05,15,39,26.10
2016,06,05,15,40,26.20
2016,06,05,15,41,26.20
2016,06,05,15,42,26.20
2016,06,05,15,43,26.20
2016,06,05,15,44,26.20
2016,06,05,15,45,26.20
2016,06,05,15,46,26.20
2016,06,05,15,47,26.20
2016,06,05,15,48,26.20
2016,06,05,15,49,26.30
2016,06,05,15,50,26.30
2016,06,05,15,51,26.40
2016,06,05,15,52,26.50
2016,06,05,15,53,26.60
2016,06,05,15,54,26.60
2016,06,05,15,55,26.60
2016,06,05,15,56,26.60
2016,06,05,15,57,26.60
2016,06,05,15,58,26.60
2016,06,05,15,59,26.60
2016,06,05,16,00,26.60
2016,06,05,16,01,26.70
2016,06,05,16,02,26.80
2016,06,05,16,03,26.90
2016,06,05,16,04,27.00
2016,06,05,16,05,27.10
2016,06,05,16,06,27.20
2016,06,05,16,07,27.30
2016,06,05,16,08,27.30
2016,06,05,16,09,27.30
2016,06,05,16,10,27.50
2016,06,05,16,11,27.60
2016,06,05,16,12,27.60
2016,06,05,16,13,27.60
2016,06,05,16,14,27.50
2016,06,05,16,15,27.40
2016,06,05,16,16,27.40
2016,06,05,16,17,27.40
2016,06,05,16,18,27.30
2016,06,05,16,19,27.30
2016,06,05,16,20,27.20
2016,06,05,16,21,27.20
2016,06,05,16,22,27.20
2016,06,05,16,23,27.20
2016,06,05,16,24,27.20
2016,06,05,16,25,27.20
2016,06,05,16,26,27.20
2016,06,05,16,27,27.20
2016,06,05,16,28,27.20
2016,06,05,16,29,27.20
2016,06,05,16,30,27.20
2016,06,05,16,31,27.20
2016,06,05,16,32,27.30
2016,06,05,16,33,27.30
2016,06,05,16,34,27.20
2016,06,05,16,35,27.20
2016,06,05,16,36,27.10
2016,06,05,16,37,27.10
2016,06,05,16,38,27.20
2016,06,05,16,39,27.20
2016,06,05,16,40,27.20
2016,06,05,16,41,27.30
2016,06,05,16,42,27.20
2016,06,05,16,43,27.10
2016,06,05,16,44,27.10
2016,06,05,16,45,27.10
2016,06,05,16,46,27.20
2016,06,05,16,47,27.30
2016,06,05,16,48,27.40
2016,06,05,16,49,27.50
2016,06,05,16,50,27.50
2016,06,05,16,51,27.50
2016,06,05,16,52,27.60
2016,06,05,16,53,27.60
2016,06,05,16,54,27.50
2016,06,05,16,55,27.40
2016,06,05,16,56,27.40
2016,06,05,16,57,27.40
2016,06,05,16,58,27.30
2016,06,05,16,59,27.20
2016,06,05,17,00,27.10
2016,06,05,17,01,26.90
2016,06,05,17,02,26.70
2016,06,05,17,03,26.50
2016,06,05,17,04,26.40
2016,06,05,17,05,26.30
2016,06,05,17,06,26.20
2016,06,05,17,07,26.00
2016,06,05,17,08,25.90
2016,06,05,17,09,25.90
2016,06,05,17,10,25.80
2016,06,05,17,11,25.80
2016,06,05,17,12,25.90
2016,06,05,17,13,25.90
2016,06,05,17,14,25.90
2016,06,05,17,15,26.00
2016,06,05,17,16,26.20
2016,06,05,17,17,26.30
2016,06,05,17,18,26.40
2016,06,05,17,19,26.40